Location: Haliburton Scout Reserve
(45.0900°N, 78.3200°W)
Time: 04:15:29
(UTC-04:00)

Gurwin Techsat 1B - Visible Passes

Search period start: 16 May 2022 00:00
Search period end: 26 May 2022 00:00
Orbit: 812 x 813 km, 98.8° (Epoch: 15 May)

Date Brightness Start Highest point End Pass type
(mag) Time Alt. Az. Time Alt. Az. Time Alt. Az.
16 May 10.9 02:24:02 10° NE 02:26:57 15° E 02:29:51 10° ESE visible
16 May 8.6 04:02:08 10° NNE 04:07:28 78° WNW 04:11:34 17° SSW visible
17 May 8.8 03:39:13 10° NNE 03:44:32 68° ESE 03:48:25 19° S visible
18 May 9.5 03:16:28 10° NNE 03:21:32 43° E 03:25:15 17° SSE visible
18 May 9.8 04:56:44 10° N 05:01:15 29° WNW 05:05:43 10° WSW visible
19 May 10.2 02:53:55 10° NE 02:58:26 27° E 03:02:04 14° SE visible
19 May 9.2 04:33:29 10° N 04:38:29 43° WNW 04:43:17 11° SW visible
20 May 10.8 02:31:47 10° NE 02:35:16 17° E 02:38:42 10° SE visible
20 May 8.7 04:10:22 10° N 04:15:40 67° WNW 04:20:06 15° SSW visible
21 May 11.2 02:11:10 10° ENE 02:12:00 10° E 02:12:50 10° E visible
21 May 8.7 03:47:24 10° NNE 03:52:45 79° ESE 03:56:56 17° S visible
22 May 9.3 03:24:35 10° NNE 03:29:46 50° E 03:33:45 17° S visible
23 May 10.0 03:01:57 10° NNE 03:06:42 32° E 03:10:35 14° SSE visible
23 May 9.4 04:41:46 10° N 04:46:38 37° WNW 04:51:28 10° SW visible
24 May 10.6 02:39:39 10° NE 02:43:33 20° E 02:47:24 10° SE visible
24 May 8.8 04:18:37 10° N 04:23:50 58° WNW 04:28:37 12° SSW visible
25 May 11.0 02:18:05 10° ENE 02:20:19 13° E 02:22:32 10° ESE visible
25 May 8.6 03:55:36 10° NNE 04:00:57 89° WNW 04:05:25 15° SSW visible
